Location: Limoges
(45.8354°N, 1.2645°E)
Time: 18:48:18
(UTC+02:00)

Vanguard 2 Rocket - Pass Details

Date: 29 February 2024
Orbit: 555 x 3307 km, 32.9° (Epoch: 23 April)

Event Time Altitude Azimuth Distance (km) Brightness Sun altitude
Rises 21:31:59 0° 267° (W) 6,211 12.1 -30.1°
Reaches altitude 10° 21:39:10 10° 246° (WSW) 5,705 11.4 -31.3°
Maximum altitude 21:46:29 14° 221° (SW) 5,717 11.1 -32.4°
Drops below altitude 10° 21:54:28 10° 197° (SSW) 6,241 11.0 -33.7°
Sets 22:03:27 0° 176° (S) 7,223 11.2 -35.0°
